User: anonymous   Login
Location: Mason Neck State Park
(38.6428°N, 77.1981°W)
Time: 09:52:02
(UTC-04:00)
Language:

Cosmos 1400 Rocket - Orbit

View from above orbital plane
View from above orbital plane
View from above satellite
View from above satellite

Ground track
Ground track

The orbit data is extracted from the following two-line orbital elements,

1 13403U 82079B   15146.52394582  .00000661  00000-0  44063-4 0  9996
2 13403 081.1710 050.7603 0033697 235.5715 124.2322 15.05309389783432
Epoch (UTC): 26 May 2015 12:34:28
Eccentricity: 0.0033697
inclination: 81.1710°
perigee height: 527 km
apogee height: 574 km
right ascension of ascending node: 50.7603°
argument of perigee: 235.5715°
revolutions per day: 15.05309389
mean anomaly at epoch: 124.2322°
orbit number at epoch: 78343

The dashed part of the orbit path shows where the satellite is in the earth's shadow,  

DLR